01-03-2022, 00:00:00,    333,    2.6,    5.1,   0.00,   0.00, 1020.0,   99.2, -999.0
01-03-2022, 00:00:10,    332,    0.8,    5.0,   0.00,   0.00, 1019.9,   99.1, -999.0
01-03-2022, 00:00:21,    334,    0.7,    5.1,   0.00,   0.00, 1020.0,   99.0, -999.0
01-03-2022, 00:00:29,      0,    2.0,    5.1,   0.00,   0.00, 1020.0,   99.1, -999.0
01-03-2022, 00:00:40,      1,    0.7,    5.1,   0.00,   0.00, 1019.9,   99.1, -999.0
01-03-2022, 00:00:50,    324,    0.3,    5.0,   0.00,   0.00, 1019.9,   99.1, -999.0
01-03-2022, 00:00:59,    342,    1.7,    5.1,   0.00,   0.00, 1020.0,   99.1, -999.0
01-03-2022, 00:01:09,    339,    1.6,    5.1,   0.00,   0.00, 1020.0,   99.0, -999.0
01-03-2022, 00:01:20,    313,    1.6,    5.1,   0.00,   0.00, 1019.9,   99.2, -999.0
01-03-2022, 00:01:29,    319,    0.8,    5.1,   0.00,   0.00, 1020.0,   99.1, -999.0
01-03-2022, 00:01:39,    319,    0.1,    5.1,   0.00,   0.01, 1019.8,   98.8, -999.0
01-03-2022, 00:01:49,    325,    0.8,    5.2,   0.00,   0.00, 1020.0,   99.1, -999.0
01-03-2022, 00:01:59,     21,    1.0,    5.1,   0.00,   0.00, 1020.0,   99.1, -999.0
01-03-2022, 00:02:09,    352,    1.1,    5.1,   0.00,   0.00, 1020.0,   99.1, -999.0
01-03-2022, 00:02:19,    352,    1.2,    5.2,   0.00,   0.00, 1020.0,   99.1, -999.0
01-03-2022, 00:02:29,    325,    0.8,    5.1,   0.00,   0.00, 1020.0,   99.1, -999.0
01-03-2022, 00:02:39,    326,    0.3,    5.1,   0.00,   0.00, 1019.9,   98.9, -999.0
01-03-2022, 00:02:49,    326,    0.1,    5.0,   0.00,   0.00, 1019.9,   98.9, -999.0
01-03-2022, 00:02:59,    325,    0.5,    5.1,   0.00,   0.00, 1019.9,   99.0, -999.0
01-03-2022, 00:03:09,    325,    0.0,    5.1,   0.00,   0.01, 1019.8,   98.8, -999.0
01-03-2022, 00:03:19,    332,    0.4,    5.1,   0.00,   0.00, 1019.9,   99.1, -999.0
01-03-2022, 00:03:29,    349,    1.7,    5.1,   0.00,   0.00, 1020.0,   99.1, -999.0
01-03-2022, 00:03:38,    344,    2.9,    5.1,   0.00,   0.01, 1020.0,   99.1, -999.0
01-03-2022, 00:03:49,    306,    1.8,    5.1,   0.00,   0.00, 1020.0,   99.0, -999.0
01-03-2022, 00:03:59,    354,    0.5,    5.1,   0.00,   0.00, 1019.9,   99.1, -999.0
01-03-2022, 00:04:08,    350,    1.0,    5.0,   0.00,   0.00, 1019.9,   99.1, -999.0
01-03-2022, 00:04:18,    336,    1.5,    5.0,   0.00,   0.01, 1020.0,   99.0, -999.0
01-03-2022, 00:04:29,      0,    1.0,    5.1,   0.00,   0.00, 1019.9,   99.1, -999.0
01-03-2022, 00:04:38,    333,    1.6,    5.1,   0.00,   0.00, 1020.0,   99.1, -999.0
01-03-2022, 00:04:48,    319,    2.2,    5.1,   0.00,   0.00, 1020.0,   99.1, -999.0
01-03-2022, 00:04:58,    328,    2.0,    5.0,   0.00,   0.01, 1019.9,   99.0, -999.0
01-03-2022, 00:05:08,    329,    0.6,    5.1,   0.00,   0.00, 1019.9,   99.1, -999.0
01-03-2022, 00:05:18,    327,    1.6,    5.1,   0.00,   0.00, 1019.9,   99.0, -999.0
01-03-2022, 00:05:28,    326,    1.0,    5.1,   0.00,   0.01, 1019.9,   99.1, -999.0
01-03-2022, 00:05:38,    326,    0.3,    5.1,   0.00,   0.00, 1020.0,   99.0, -999.0
01-03-2022, 00:05:48,    326,    0.4,    5.1,   0.00,   0.00, 1019.9,   99.0, -999.0
01-03-2022, 00:05:58,    326,    0.3,    5.1,   0.00,   0.01, 1019.9,   99.0, -999.0
01-03-2022, 00:06:08,      0,    0.7,    5.2,   0.00,   0.00, 1019.9,   99.1, -999.0
01-03-2022, 00:06:18,      0,    0.1,    5.1,   0.00,   0.00, 1019.9,   98.9, -999.0
01-03-2022, 00:06:28,    332,    0.9,    5.1,   0.00,   0.00, 1019.9,   99.2, -999.0
01-03-2022, 00:06:38,    333,    0.9,    5.2,   0.00,   0.00, 1019.9,   99.1, -999.0
01-03-2022, 00:06:48,    335,    2.4,    5.1,   0.00,   0.00, 1020.0,   99.0, -999.0
01-03-2022, 00:06:58,    344,    2.4,    5.1,   0.00,   0.00, 1019.9,   99.1, -999.0
01-03-2022, 00:07:08,    354,    1.9,    5.0,   0.00,   0.00, 1020.0,   99.1, -999.0
01-03-2022, 00:07:17,    337,    0.4,    5.0,   0.00,   0.00, 1019.9,   99.0, -999.0
01-03-2022, 00:07:28,    337,    0.0,    5.0,   0.00,   0.00, 1019.8,   98.8, -999.0
01-03-2022, 00:07:37,    332,    0.7,    5.1,   0.00,   0.00, 1019.9,   99.1, -999.0
01-03-2022, 00:07:47,     11,    0.7,    5.1,   0.00,   0.00, 1020.0,   99.2, -999.0
01-03-2022, 00:07:57,      0,    0.3,    5.1,   0.00,   0.00, 1019.9,   99.0, -999.0
01-03-2022, 00:08:07,      0,    0.0,    5.1,   0.00,   0.00, 1019.8,   98.7, -999.0
01-03-2022, 00:08:17,    326,    0.5,    5.1,   0.00,   0.00, 1020.0,   99.0, -999.0
01-03-2022, 00:08:27,    326,    0.0,    5.1,   0.00,   0.00, 1019.9,   98.8, -999.0
01-03-2022, 00:08:37,      0,    2.1,    5.1,   0.00,   0.00, 1019.9,   99.1, -999.0
01-03-2022, 00:08:47,    302,    1.6,    5.1,   0.00,   0.00, 1019.9,   99.2, -999.0
01-03-2022, 00:08:57,    313,    1.0,    5.1,   0.00,   0.00, 1020.0,   99.0, -999.0
01-03-2022, 00:09:07,    327,    1.6,    5.2,   0.00,   0.00, 1020.0,   99.1, -999.0
01-03-2022, 00:09:17,    320,    0.8,    5.0,   0.00,   0.01, 1020.0,   99.0, -999.0
01-03-2022, 00:09:27,    324,    0.5,    5.1,   0.00,   0.00, 1019.9,   99.0, -999.0
01-03-2022, 00:09:37,      8,    1.0,    5.1,   0.00,   0.00, 1019.9,   98.9, -999.0
01-03-2022, 00:09:47,    327,    1.0,    5.2,   0.00,   0.00, 1020.0,   99.1, -999.0
01-03-2022, 00:09:57,    327,    0.0,    5.0,   0.00,   0.01, 1019.9,   98.8, -999.0
01-03-2022, 00:10:07,    327,    0.1,    5.0,   0.00,   0.00, 1019.9,   98.8, -999.0
01-03-2022, 00:10:17,    327,    0.0,    5.1,   0.00,   0.00, 1019.8,   98.7, -999.0
01-03-2022, 00:10:26,     21,    0.0,    5.0,   0.00,   0.00, 1019.8,   98.8, -999.0
01-03-2022, 00:10:37,    287,    1.1,    5.1,   0.00,   0.01, 1020.0,   99.0, -999.0
01-03-2022, 00:10:47,    297,    0.1,    5.1,   0.00,   0.00, 1019.8,   98.8, -999.0
01-03-2022, 00:10:56,    313,    0.0,    5.1,   0.00,   0.00, 1019.9,   98.9, -999.0
01-03-2022, 00:11:06,    313,    0.0,    5.0,   0.00,   0.01, 1019.8,   98.8, -999.0
01-03-2022, 00:11:16,    353,    0.5,    5.1,   0.00,   0.00, 1020.0,   99.1, -999.0
01-03-2022, 00:11:26,    353,    0.2,    5.1,   0.00,   0.00, 1019.9,   98.8, -999.0
01-03-2022, 00:11:36,    339,    0.1,    5.1,   0.00,   0.01, 1019.9,   98.9, -999.0
01-03-2022, 00:11:46,    346,    1.8,    5.2,   0.00,   0.00, 1020.0,   99.0, -999.0
01-03-2022, 00:11:56,    336,    1.0,    5.2,   0.00,   0.01, 1020.0,   99.0, -999.0
01-03-2022, 00:12:06,    331,    2.1,    5.1,   0.00,   0.00, 1020.0,   99.2, -999.0
01-03-2022, 00:12:16,      0,    1.5,    5.1,   0.00,   0.01, 1020.0,   99.1, -999.0
01-03-2022, 00:12:26,      4,    2.6,    5.1,   0.00,   0.00, 1019.9,   99.0, -999.0
01-03-2022, 00:12:36,    347,    2.2,    5.2,   0.00,   0.00, 1019.9,   99.1, -999.0
01-03-2022, 00:12:46,     20,    0.7,    5.1,   0.00,   0.00, 1019.9,   98.9, -999.0
01-03-2022, 00:12:56,    338,    1.6,    5.2,   0.00,   0.00, 1020.0,   99.1, -999.0
01-03-2022, 00:13:06,    327,    3.6,    5.1,   0.00,   0.01, 1020.0,   99.1, -999.0
01-03-2022, 00:13:16,    335,    2.5,    5.0,   0.00,   0.00, 1020.0,   99.1, -999.0
01-03-2022, 00:13:26,    336,    0.5,    5.1,   0.00,   0.01, 1019.9,   99.0, -999.0
01-03-2022, 00:13:35,    332,    1.4,    5.1,   0.00,   0.00, 1020.0,   99.1, -999.0
01-03-2022, 00:13:46,    352,    1.2,    5.1,   0.00,   0.00, 1020.0,   99.0, -999.0
01-03-2022, 00:13:56,    358,    1.7,    5.1,   0.00,   0.01, 1020.0,   99.1, -999.0
01-03-2022, 00:14:05,    358,    0.3,    5.1,   0.00,   0.00, 1019.9,   98.8, -999.0
01-03-2022, 00:14:16,      0,    0.1,    5.0,   0.00,   0.00, 1019.9,   98.9, -999.0
01-03-2022, 00:14:25,    283,    0.3,    5.0,   0.00,   0.01, 1019.9,   99.0, -999.0
01-03-2022, 00:14:35,    341,    1.5,    5.1,   0.00,   0.00, 1019.9,   99.0, -999.0
01-03-2022, 00:14:45,    331,    2.9,    5.0,   0.00,   0.00, 1020.0,   99.1, -999.0
01-03-2022, 00:14:55,    358,    1.9,    5.1,   0.00,   0.01, 1020.0,   99.1, -999.0
01-03-2022, 00:15:05,      0,    0.6,    5.1,   0.00,   0.00, 1019.9,   99.0, -999.0
01-03-2022, 00:15:15,    338,    2.0,    5.1,   0.00,   0.00, 1019.9,   99.1, -999.0
01-03-2022, 00:15:25,    347,    0.8,    5.1,   0.00,   0.01, 1019.9,   99.1, -999.0
01-03-2022, 00:15:35,    340,    1.3,    5.0,   0.00,   0.00, 1020.0,   99.2, -999.0
01-03-2022, 00:15:45,     10,    1.0,    5.1,   0.00,   0.00, 1020.0,   99.1, -999.0
01-03-2022, 00:15:55,    332,    1.2,    5.1,   0.00,   0.01, 1020.0,   99.0, -999.0
01-03-2022, 00:16:05,    331,    0.8,    5.1,   0.00,   0.00, 1019.9,   99.0, -999.0
01-03-2022, 00:16:15,    332,    1.0,    5.1,   0.00,   0.00, 1019.9,   99.1, -999.0
01-03-2022, 00:16:25,      0,    3.1,    5.2,   0.00,   0.01, 1020.0,   99.0, -999.0
01-03-2022, 00:16:35,      0,    0.9,    5.1,   0.00,   0.00, 1020.0,   99.1, -999.0
01-03-2022, 00:16:45,    304,    0.6,    5.1,   0.00,   0.00, 1020.0,   99.0, -999.0
01-03-2022, 00:16:55,    348,    3.2,    5.0,   0.00,   0.01, 1020.0,   99.1, -999.0
01-03-2022, 00:17:04,    338,    2.1,    5.1,   0.00,   0.00, 1020.0,   99.1, -999.0
01-03-2022, 00:17:14,    330,    1.0,    5.0,   0.00,   0.00, 1020.0,   99.1, -999.0
01-03-2022, 00:17:25,     54,    0.9,    5.1,   0.00,   0.00, 1019.9,   99.1, -999.0
01-03-2022, 00:17:34,    356,    0.2,    5.0,   0.00,   0.01, 1019.9,   98.9, -999.0
01-03-2022, 00:17:44,    345,    2.3,    5.1,   0.00,   0.00, 1020.0,   99.0, -999.0
01-03-2022, 00:17:54,    354,    0.7,    5.1,   0.00,   0.00, 1020.0,   99.1, -999.0
01-03-2022, 00:18:04,    343,    0.7,    5.1,   0.00,   0.00, 1020.0,   98.9, -999.0
01-03-2022, 00:18:14,    333,    2.0,    5.1,   0.00,   0.00, 1020.0,   99.1, -999.0
01-03-2022, 00:18:24,    357,    4.8,    5.1,   0.00,   0.01, 1020.1,   99.1, -999.0
01-03-2022, 00:18:34,    327,    1.8,    5.1,   0.00,   0.00, 1020.1,   99.1, -999.0
01-03-2022, 00:18:44,    327,    0.3,    5.1,   0.00,   0.00, 1020.0,   99.0, -999.0
01-03-2022, 00:18:54,    328,    0.4,    5.0,   0.00,   0.01, 1020.1,   98.9, -999.0
01-03-2022, 00:19:04,      0,    0.7,    5.1,   0.00,   0.00, 1020.0,   98.9, -999.0
01-03-2022, 00:19:14,      0,    1.8,    5.1,   0.00,   0.00, 1020.0,   99.1, -999.0
01-03-2022, 00:19:24,      8,    0.6,    5.1,   0.00,   0.00, 1020.1,   99.0, -999.0
01-03-2022, 00:19:34,      5,    0.0,    5.1,   0.00,   0.01, 1019.9,   98.7, -999.0
01-03-2022, 00:19:43,      0,    0.7,    5.1,   0.00,   0.00, 1020.1,   99.1, -999.0
01-03-2022, 00:19:54,    349,    0.7,    5.1,   0.00,   0.00, 1020.1,   99.1, -999.0
01-03-2022, 00:20:04,    356,    0.8,    5.1,   0.00,   0.01, 1020.1,   99.0, -999.0
01-03-2022, 00:20:13,    356,    0.1,    5.0,   0.00,   0.00, 1020.0,   98.9, -999.0
01-03-2022, 00:20:24,    352,    0.1,    5.0,   0.00,   0.00, 1020.0,   98.8, -999.0
01-03-2022, 00:20:34,    358,    1.2,    5.1,   0.00,   0.00, 1020.0,   99.1, -999.0
01-03-2022, 00:20:43,      0,    0.4,    5.1,   0.00,   0.00, 1020.1,   99.0, -999.0
01-03-2022, 00:20:53,    359,    0.7,    5.1,   0.00,   0.01, 1020.1,   99.0, -999.0
01-03-2022, 00:21:04,    358,    0.0,    5.1,   0.00,   0.00, 1020.0,   98.9, -999.0
01-03-2022, 00:21:13,    338,    0.2,    5.0,   0.00,   0.00, 1020.0,   98.8, -999.0
01-03-2022, 00:21:23,    339,    0.6,    5.1,   0.00,   0.00, 1020.0,   99.0, -999.0
01-03-2022, 00:21:33,    343,    0.3,    5.1,   0.00,   0.00, 1020.0,   99.1, -999.0
01-03-2022, 00:21:43,    343,    0.0,    5.0,   0.00,   0.01, 1020.0,   98.8, -999.0
01-03-2022, 00:21:53,    342,    0.0,    5.0,   0.00,   0.00, 1020.0,   98.7, -999.0
01-03-2022, 00:22:03,    345,    0.0,    5.1,   0.00,   0.00, 1020.0,   98.7, -999.0
01-03-2022, 00:22:13,    345,    0.5,    5.1,   0.00,   0.00, 1020.1,   99.0, -999.0
01-03-2022, 00:22:23,    345,    0.1,    5.1,   0.00,   0.00, 1020.0,   98.8, -999.0
01-03-2022, 00:22:33,    346,    0.0,    5.0,   0.00,   0.01, 1020.0,   98.8, -999.0
01-03-2022, 00:22:43,    347,    0.1,    5.1,   0.00,   0.00, 1020.0,   99.0, -999.0
01-03-2022, 00:22:53,    346,    0.0,    5.1,   0.00,   0.00, 1020.0,   98.7, -999.0
01-03-2022, 00:23:03,    347,    0.0,    5.1,   0.00,   0.00, 1020.0,   98.6, -999.0
01-03-2022, 00:23:13,    346,    0.0,    5.1,   0.00,   0.00, 1020.0,   98.7, -999.0
01-03-2022, 00:23:22,     15,    0.8,    5.1,   0.00,   0.01, 1020.1,   98.9, -999.0
01-03-2022, 00:23:33,    312,    1.5,    5.2,   0.00,   0.00, 1020.1,   99.0, -999.0
01-03-2022, 00:23:43,    319,    0.5,    5.1,   0.00,   0.00, 1020.1,   99.0, -999.0
01-03-2022, 00:23:52,    339,    1.0,    5.2,   0.00,   0.00, 1020.1,   99.1, -999.0
01-03-2022, 00:24:02,    339,    0.3,    5.2,   0.00,   0.01, 1020.1,   99.0, -999.0
01-03-2022, 00:24:13,    339,    0.0,    5.1,   0.00,   0.00, 1020.0,   98.7, -999.0
01-03-2022, 00:24:22,      0,    0.5,    5.1,   0.00,   0.00, 1020.1,   98.9, -999.0
01-03-2022, 00:24:32,      0,    0.6,    5.1,   0.00,   0.00, 1020.1,   99.2, -999.0
01-03-2022, 00:24:42,    297,    2.3,    5.1,   0.00,   0.01, 1020.1,   99.0, -999.0
01-03-2022, 00:24:52,    297,    0.2,    5.1,   0.00,   0.00, 1020.0,   98.7, -999.0
01-03-2022, 00:25:02,    298,    0.2,    5.1,   0.00,   0.00, 1020.0,   98.8, -999.0
01-03-2022, 00:25:12,    301,    0.0,    5.1,   0.00,   0.00, 1020.0,   98.8, -999.0
01-03-2022, 00:25:22,    332,    0.1,    5.1,   0.00,   0.00, 1020.0,   98.9, -999.0
01-03-2022, 00:25:32,    333,    0.2,    5.1,   0.00,   0.01, 1020.1,   99.0, -999.0
01-03-2022, 00:25:43,    333,    0.2,    5.1,   0.00,   0.00, 1020.1,   98.9, -999.0
01-03-2022, 00:25:52,    333,    0.0,    5.0,   0.00,   0.00, 1020.0,   98.9, -999.0
01-03-2022, 00:26:02,    334,    0.0,    5.0,   0.00,   0.00, 1020.0,   98.7, -999.0
01-03-2022, 00:26:12,    333,    0.0,    5.1,   0.00,   0.01, 1020.0,   98.7, -999.0
01-03-2022, 00:26:22,    334,    0.0,    5.1,   0.00,   0.00, 1020.0,   98.8, -999.0
01-03-2022, 00:26:31,    336,    0.9,    5.1,   0.00,   0.00, 1020.1,   98.9, -999.0
01-03-2022, 00:26:42,    343,    3.0,    5.2,   0.00,   0.00, 1020.2,   99.0, -999.0
01-03-2022, 00:26:52,    345,    2.8,    5.1,   0.00,   0.01, 1020.2,   99.0, -999.0
01-03-2022, 00:27:01,    340,    1.1,    5.1,   0.00,   0.00, 1020.2,   99.1, -999.0
01-03-2022, 00:27:12,    342,    0.3,    5.0,   0.00,   0.00, 1020.1,   98.9, -999.0
01-03-2022, 00:27:21,    341,    0.4,    5.1,   0.00,   0.00, 1020.1,   99.0, -999.0
01-03-2022, 00:27:31,    341,    0.7,    5.1,   0.00,   0.01, 1020.1,   99.0, -999.0
01-03-2022, 00:27:41,    341,    0.0,    5.0,   0.00,   0.00, 1020.0,   98.7, -999.0
01-03-2022, 00:27:51,    341,    0.0,    5.1,   0.00,   0.00, 1020.1,   98.7, -999.0
01-03-2022, 00:28:01,    338,    0.0,    5.1,   0.00,   0.00, 1020.1,   98.9, -999.0
01-03-2022, 00:28:11,    340,    0.0,    5.1,   0.00,   0.01, 1020.0,   98.7, -999.0
01-03-2022, 00:28:21,    343,    0.4,    5.0,   0.00,   0.00, 1020.1,   98.9, -999.0
01-03-2022, 00:28:31,    299,    0.9,    5.1,   0.00,   0.00, 1020.2,   99.0, -999.0
01-03-2022, 00:28:41,    325,    0.5,    5.1,   0.00,   0.00, 1020.2,   99.1, -999.0
01-03-2022, 00:28:51,    325,    0.0,    5.0,   0.00,   0.00, 1020.0,   98.8, -999.0
01-03-2022, 00:29:01,    325,    0.0,    5.0,   0.00,   0.00, 1020.1,   98.6, -999.0
01-03-2022, 00:29:11,    325,    0.0,    5.0,   0.00,   0.01, 1020.1,   98.7, -999.0
01-03-2022, 00:29:21,      0,    0.4,    5.1,   0.00,   0.00, 1020.1,   99.1, -999.0
01-03-2022, 00:29:31,    355,    1.1,    5.1,   0.00,   0.00, 1020.2,   99.0, -999.0
01-03-2022, 00:29:41,    339,    1.4,    5.1,   0.00,   0.00, 1020.2,   99.1, -999.0
01-03-2022, 00:29:51,    340,    1.5,    5.1,   0.00,   0.00, 1020.2,   99.0, -999.0
01-03-2022, 00:30:00,    340,    0.5,    5.0,   0.00,   0.00, 1020.2,   99.1, -999.0
01-03-2022, 00:30:10,    340,    0.0,    5.0,   0.00,   0.01, 1020.1,   98.8, -999.0
01-03-2022, 00:30:21,    344,    0.4,    5.0,   0.00,   0.00, 1020.2,   99.0, -999.0
01-03-2022, 00:30:30,    336,    0.2,    5.1,   0.00,   0.00, 1020.2,   99.2, -999.0
01-03-2022, 00:30:40,    347,    1.2,    5.0,   0.00,   0.00, 1020.1,   98.9, -999.0
01-03-2022, 00:30:50,    357,    3.9,    5.1,   0.00,   0.00, 1020.2,   99.1, -999.0
01-03-2022, 00:31:00,    354,    3.9,    5.0,   0.00,   0.01, 1020.3,   99.2, -999.0
01-03-2022, 00:31:10,    325,    2.3,    4.9,   0.00,   0.00, 1020.3,   99.1, -999.0
01-03-2022, 00:31:20,    318,    0.7,    5.0,   0.00,   0.00, 1020.2,   99.0, -999.0
01-03-2022, 00:31:30,    347,    0.5,    5.0,   0.00,   0.00, 1020.2,   98.9, -999.0
01-03-2022, 00:31:40,    358,    0.8,    5.0,   0.00,   0.01, 1020.3,   99.0, -999.0
01-03-2022, 00:31:50,      3,    0.8,    5.0,   0.00,   0.00, 1020.2,   99.1, -999.0
01-03-2022, 00:32:00,      0,    0.2,    5.0,   0.00,   0.00, 1020.2,   98.9, -999.0
01-03-2022, 00:32:10,    342,    0.5,    5.0,   0.00,   0.00, 1020.2,   98.9, -999.0
01-03-2022, 00:32:20,    323,    0.5,    5.1,   0.00,   0.00, 1020.3,   99.0, -999.0
01-03-2022, 00:32:30,    323,    0.0,    5.0,   0.00,   0.00, 1020.1,   98.7, -999.0
01-03-2022, 00:32:40,    322,    0.4,    5.0,   0.00,   0.01, 1020.2,   99.0, -999.0
01-03-2022, 00:32:50,    330,    0.1,    4.9,   0.00,   0.00, 1020.2,   98.9, -999.0
01-03-2022, 00:33:00,    329,    0.0,    5.0,   0.00,   0.00, 1020.2,   98.8, -999.0
01-03-2022, 00:33:09,    329,    0.0,    5.0,   0.00,   0.00, 1020.2,   98.8, -999.0
01-03-2022, 00:33:19,    330,    0.1,    5.1,   0.00,   0.00, 1020.2,   98.9, -999.0
01-03-2022, 00:33:30,    330,    0.0,    5.0,   0.00,   0.00, 1020.2,   98.9, -999.0
01-03-2022, 00:33:39,    330,    0.0,    5.0,   0.00,   0.00, 1020.1,   98.7, -999.0
01-03-2022, 00:33:49,    331,    0.0,    5.0,   0.00,   0.01, 1020.2,   98.7, -999.0
01-03-2022, 00:34:00,    331,    0.0,    5.0,   0.00,   0.00, 1020.2,   98.7, -999.0
01-03-2022, 00:34:09,      0,    0.2,    5.1,   0.00,   0.00, 1020.2,   98.8, -999.0
01-03-2022, 00:34:19,    338,    0.8,    5.1,   0.00,   0.00, 1020.3,   99.1, -999.0
01-03-2022, 00:34:29,    337,    0.9,    5.3,   0.00,   0.00, 1020.3,   99.0, -999.0
01-03-2022, 00:34:39,     22,    1.9,    5.1,   0.00,   0.00, 1020.3,   99.1, -999.0
01-03-2022, 00:34:49,      8,    0.8,    5.2,   0.00,   0.01, 1020.3,   99.0, -999.0
01-03-2022, 00:34:59,    338,    0.2,    5.1,   0.00,   0.00, 1020.3,   98.9, -999.0
01-03-2022, 00:35:09,    338,    0.3,    5.1,   0.00,   0.00, 1020.3,   98.9, -999.0
01-03-2022, 00:35:19,    338,    0.0,    5.0,   0.00,   0.00, 1020.2,   98.7, -999.0
01-03-2022, 00:35:29,    337,    0.2,    4.9,   0.00,   0.00, 1020.3,   98.9, -999.0
01-03-2022, 00:35:39,    336,    0.1,    5.1,   0.00,   0.00, 1020.2,   98.8, -999.0
01-03-2022, 00:35:49,    342,    1.4,    5.0,   0.00,   0.00, 1020.3,   99.0, -999.0
01-03-2022, 00:35:59,    338,    2.6,    5.1,   0.00,   0.00, 1020.3,   99.1, -999.0
01-03-2022, 00:36:09,    342,    1.0,    5.0,   0.00,   0.01, 1020.3,   99.1, -999.0
01-03-2022, 00:36:18,    332,    1.0,    5.1,   0.00,   0.00, 1020.4,   99.1, -999.0
01-03-2022, 00:36:29,    334,    0.7,    5.1,   0.00,   0.00, 1020.4,   99.0, -999.0
01-03-2022, 00:36:39,    333,    0.7,    5.1,   0.00,   0.00, 1020.3,   99.0, -999.0
01-03-2022, 00:36:48,    333,    0.0,    5.0,   0.00,   0.01, 1020.2,   98.7, -999.0
01-03-2022, 00:36:58,    357,    0.5,    5.0,   0.00,   0.00, 1020.3,   99.0, -999.0
01-03-2022, 00:37:09,    351,    0.2,    5.0,   0.00,   0.00, 1020.3,   99.1, -999.0
01-03-2022, 00:37:18,    352,    0.0,    5.0,   0.00,   0.00, 1020.2,   98.7, -999.0
01-03-2022, 00:37:28,    351,    0.0,    5.0,   0.00,   0.00, 1020.3,   98.8, -999.0
01-03-2022, 00:37:38,    351,    0.0,    5.1,   0.00,   0.01, 1020.3,   98.8, -999.0
01-03-2022, 00:37:48,      0,    0.3,    5.1,   0.00,   0.00, 1020.3,   99.0, -999.0
01-03-2022, 00:37:58,    315,    0.2,    5.1,   0.00,   0.00, 1020.3,   98.8, -999.0
01-03-2022, 00:38:08,    316,    0.2,    5.2,   0.00,   0.00, 1020.3,   98.8, -999.0
01-03-2022, 00:38:18,    316,    0.4,    5.1,   0.00,   0.00, 1020.3,   99.0, -999.0
01-03-2022, 00:38:28,    316,    0.0,    5.0,   0.00,   0.00, 1020.3,   98.7, -999.0
01-03-2022, 00:38:38,    316,    0.0,    5.1,   0.00,   0.01, 1020.3,   98.8, -999.0
01-03-2022, 00:38:48,    315,    0.0,    5.1,   0.00,   0.00, 1020.3,   98.7, -999.0
01-03-2022, 00:38:58,    316,    0.0,    5.0,   0.00,   0.00, 1020.3,   98.7, -999.0
01-03-2022, 00:39:08,    317,    0.0,    5.1,   0.00,   0.00, 1020.3,   98.7, -999.0
01-03-2022, 00:39:18,    358,    1.3,    5.1,   0.00,   0.01, 1020.4,   99.0, -999.0
01-03-2022, 00:39:27,    314,    1.3,    5.2,   0.00,   0.00, 1020.5,   99.1, -999.0
01-03-2022, 00:39:38,    327,    0.4,    5.1,   0.00,   0.00, 1020.3,   99.0, -999.0
01-03-2022, 00:39:48,    355,    1.8,    5.1,   0.00,   0.00, 1020.4,   99.0, -999.0
01-03-2022, 00:39:57,    357,    0.5,    5.0,   0.00,   0.01, 1020.4,   99.0, -999.0
01-03-2022, 00:40:07,      1,    0.5,    5.1,   0.00,   0.00, 1020.4,   99.0, -999.0
01-03-2022, 00:40:18,      0,    0.2,    5.1,   0.00,   0.00, 1020.3,   98.9, -999.0
01-03-2022, 00:40:27,      0,    0.3,    5.0,   0.00,   0.00, 1020.4,   98.8, -999.0
01-03-2022, 00:40:37,    355,    0.2,    5.1,   0.00,   0.00, 1020.4,   98.8, -999.0
01-03-2022, 00:40:48,     17,    0.3,    5.1,   0.00,   0.01, 1020.4,   99.0, -999.0
01-03-2022, 00:40:57,     19,    0.9,    5.1,   0.00,   0.00, 1020.5,   99.0, -999.0
01-03-2022, 00:41:07,    325,    1.0,    5.1,   0.00,   0.00, 1020.5,   99.1, -999.0
01-03-2022, 00:41:17,    325,    0.5,    5.1,   0.00,   0.00, 1020.4,   99.0, -999.0
01-03-2022, 00:41:27,    325,    0.1,    5.0,   0.00,   0.01, 1020.4,   98.8, -999.0
01-03-2022, 00:41:37,    326,    0.0,    5.0,   0.00,   0.00, 1020.3,   98.7, -999.0
01-03-2022, 00:41:47,    325,    0.0,    5.0,   0.00,   0.00, 1020.3,   98.7, -999.0
01-03-2022, 00:41:57,    323,    0.0,    5.0,   0.00,   0.00, 1020.3,   98.7, -999.0
01-03-2022, 00:42:07,    326,    0.0,    5.1,   0.00,   0.01, 1020.4,   98.9, -999.0
01-03-2022, 00:42:17,    327,    0.0,    5.0,   0.00,   0.00, 1020.4,   98.7, -999.0
01-03-2022, 00:42:27,    327,    0.0,    5.0,   0.00,   0.00, 1020.4,   98.8, -999.0
01-03-2022, 00:42:36,    328,    0.1,    5.1,   0.00,   0.00, 1020.4,   98.9, -999.0
01-03-2022, 00:42:47,    327,    0.0,    5.1,   0.00,   0.01, 1020.4,   98.8, -999.0
01-03-2022, 00:42:57,    327,    0.0,    5.1,   0.00,   0.00, 1020.3,   98.7, -999.0
01-03-2022, 00:43:06,    327,    0.0,    5.1,   0.00,   0.00, 1020.3,   98.8, -999.0
01-03-2022, 00:43:17,    327,    0.0,    5.1,   0.00,   0.00, 1020.4,   98.7, -999.0
01-03-2022, 00:43:28,    337,    0.1,    5.1,   0.00,   0.01, 1020.4,   98.9, -999.0
01-03-2022, 00:43:36,    337,    0.0,    5.1,   0.00,   0.00, 1020.4,   98.7, -999.0
01-03-2022, 00:43:46,     53,    0.3,    5.1,   0.00,   0.00, 1020.4,   99.0, -999.0
01-03-2022, 00:43:56,    324,    0.2,    5.1,   0.00,   0.00, 1020.4,   99.0, -999.0
01-03-2022, 00:44:06,      0,    0.5,    5.1,   0.00,   0.00, 1020.5,   99.0, -999.0
01-03-2022, 00:44:16,    356,    0.0,    5.1,   0.00,   0.01, 1020.4,   98.8, -999.0
01-03-2022, 00:44:26,    358,    0.9,    5.1,   0.00,   0.00, 1020.4,   99.2, -999.0
01-03-2022, 00:44:36,    355,    0.4,    5.1,   0.00,   0.00, 1020.4,   98.9, -999.0
01-03-2022, 00:44:46,    345,    0.3,    5.1,   0.00,   0.00, 1020.4,   98.9, -999.0
01-03-2022, 00:44:56,    345,    0.0,    4.9,   0.00,   0.01, 1020.3,   98.7, -999.0
01-03-2022, 00:45:06,    345,    0.1,    5.0,   0.00,   0.00, 1020.4,   98.8, -999.0
01-03-2022, 00:45:16,    351,    0.0,    5.0,   0.00,   0.00, 1020.4,   98.9, -999.0
01-03-2022, 00:45:26,    353,    0.0,    5.1,   0.00,   0.00, 1020.3,   98.7, -999.0
01-03-2022, 00:45:36,    353,    0.0,    5.1,   0.00,   0.01, 1020.3,   98.7, -999.0
01-03-2022, 00:45:46,      0,    0.2,    5.0,   0.00,   0.00, 1020.4,   98.9, -999.0
01-03-2022, 00:45:56,      0,    0.0,    5.1,   0.00,   0.00, 1020.3,   98.7, -999.0
01-03-2022, 00:46:06,    356,    0.4,    5.1,   0.00,   0.00, 1020.4,   99.0, -999.0
01-03-2022, 00:46:15,    332,    2.1,    5.1,   0.00,   0.01, 1020.4,   99.1, -999.0
01-03-2022, 00:46:26,    331,    1.4,    5.1,   0.00,   0.00, 1020.5,   99.0, -999.0
01-03-2022, 00:46:35,    330,    0.4,    5.1,   0.00,   0.00, 1020.5,   99.1, -999.0